sat.trackr.live / text

‹ back to catalog

STARLINK-32220

NORAD 60370 · 2024-138R

PAYLOAD ACTIVE UNKNOWN

§ Identity

Operator
Country
US
Launch date
2024-08-04
Launch site
AFWTR
Launch vehicle
Mass (kg)
RCS (m²)

Purposes: comms

External: N2YO · Heavens-Above · Gunter

§ Orbital elements

Epoch: 2026-09-21T20:40:15.504384Z

Period
93.85 min
Inclination
53.1604°
Eccentricity
0.0001102
Mean motion
15.34394994 rev/d
Perigee alt
462.0 km
Apogee alt
463.5 km
Semi-major
6,840.9 km
B*
-3.3024e-5
RAAN
117.6067°
Arg perigee
89.3461°
Mean anomaly
270.7668°
Rev number
12,067

§ Raw data

STARLINK-322201 60370U 24138R   26264.86129056 -.00001492  00000+0 -33024-4 0  99942 60370  53.1604 117.6067 0001102  89.3461 270.7668 15.34394994120673

JSON: /api/v1/satellites/60370 · /tle

For live sub-satellite position, see the globe view (requires WebGL).

§ Visibility from observer

Set your observer location to see the next 7 days of passes ≥ 10°. The values pass through the URL so the page stays shareable.

No JS? Fill the form by hand. The geolocation button needs JavaScript.